Regional Weather Roundup
Issued by NWS Sterling, VA

Home | Current Version | Previous Version | Graphics & Text | Print | Product List | Glossary On
Versions: 1 2 3 4 5 6 7 8 9 10 11 12 13 14 15 16 17 18 19 20 21 22 23 24 25 26 27 28 29 30 31 32 33 34 35 36 37 38 39 40 41 42 43 44 45 46 47 48
000
ASUS41 KLWX 301410
RWRLWX

REGIONAL WEATHER ROUNDUP
NATIONAL WEATHER SERVICE BALTIMORE MD/WASHINGTON DC
1000 AM EDT THU JUL 30 2015

Note: "FAIR" indicates few or no clouds below 12,000 feet
with no significant weather and/or obstructions to visibility.
 TC=TEMPERATURE CELSIUS

 * =Non NWS site. Station does not report precipitation (e.g. rain,
    snow, etc.), thunder, or fog.

DCZ001-MDZ009-015-VAZ040>042-051-053>054-301500-
WASHINGTON METRO

CITY           SKY/WX    TMP DP  RH WIND       PRES   REMARKS
WASHINGTON NAT PTSUNNY   84  75  74 S10       29.91F HX  92
DULLES         MOSUNNY   81  74  79 SW8       29.92S
ANDREWS AFB    MOSUNNY   84  73  69 S8        29.91F HX  91
FT BELVOIR     MOSUNNY   82  74  76 VRB7      29.91F
QUANTICO       PTSUNNY   82  73  72 S7        29.94R
COLLEGE PARK*  MOSUNNY   82  73  74 S5        29.91S
LEESBURG*      MOSUNNY   84  79  84 CALM      29.93S HX  96
GAITHERSBURG*  MOSUNNY   81  73  78 SW6       29.95F

$$

MDZ006>007-011-014-301500-
BALTIMORE METRO

CITY           SKY/WX    TMP DP  RH WIND       PRES   REMARKS
BWI AIRPORT    PTSUNNY   84  73  69 SW7       29.90F HX  90
MD SCIENCE CTR   N/A     84  73  69 MISG      29.90F HX  90
ANNAPOLIS      MOSUNNY   82  72  71 S9        29.91F
FORT MEADE*    MOSUNNY   81  72  74 S8        29.93S

$$

MDZ012-015-019>023-301500-
MARYLAND EASTERN SHORE

CITY           SKY/WX    TMP DP  RH WIND       PRES   REMARKS
OCEAN CITY     SUNNY     82  73  74 S8        29.95F
SALISBURY      PTSUNNY   82  73  74 S10       29.95S
BAY BRIDGE AP*   N/A     81  70  69 S12       29.92S
CAMBRIDGE*     SUNNY     82  70  65 S5        29.94S
EASTON*        MOSUNNY   84  73  70 SW10      29.96F HX  91

$$

MDZ017>025-301500-
SOUTHERN MARYLAND

CITY           SKY/WX    TMP DP  RH WIND       PRES   REMARKS
PATUXENT RIVER MOSUNNY   81  72  74 SW10      29.93F
ST INIGOES     SUNNY     82  72  71 S12       29.94S
LEONARDTOWN*   SUNNY     82  70  65 S6        29.95S

$$

MDZ003>005-301500-
NORTH CENTRAL MARYLAND

CITY           SKY/WX    TMP DP  RH WIND       PRES   REMARKS
FREDERICK*     MOSUNNY   82  77  83 SW5       29.93F HX  91
HAGERSTOWN APT MOSUNNY   84  72  67 SW6       29.91F
WESTMINSTER*   MOSUNNY   81  77  89 W8        29.92F

$$

MDZ501>502-301500-
WESTERN MARYLAND

CITY           SKY/WX    TMP DP  RH WIND       PRES   REMARKS
OAKLAND*       FOG       66 N/A N/A N5        30.07R VSB 1
CUMBERLAND*    CLOUDY    77  72  83 CALM      29.99R

$$

VAZ025>031-301500-
SHENANDOAH VALLEY

CITY           SKY/WX    TMP DP  RH WIND       PRES   REMARKS
WINCHESTER*    PTSUNNY   86  73  66 SW6       29.93S HX  93
FRONT ROYAL*   FAIR      81  73  78 SW8       29.92F
LURAY*         FAIR      84  75  74 SW8       29.95F HX  92
NEW MARKET*    PTSUNNY   81  74  77 SW5       29.94F
STAUNTON*      MOSUNNY   83  74  74 CALM      29.99F
WAYNESBORO*    FAIR      79  72  79 SW7       30.00S

$$

WVZ021-048>050-054>055-301500-
EASTERN WEST VIRGINIA PANHANDLE

CITY           SKY/WX    TMP DP  RH WIND       PRES   REMARKS
MARTINSBURG    MOSUNNY   84  74  71 SW6       29.92S HX  91
PETERSBURG*    CLOUDY   N/A N/A N/A CALM      29.97F

$$

VAZ036>039-050-301500-
CENTRAL FOOTHILLS

CITY           SKY/WX    TMP DP  RH WIND       PRES   REMARKS
CHARLOTTESVILL MOSUNNY   82  74  76 SW6       29.94S
CULPEPER*      MOSUNNY   81  75  81 CALM      29.93S
ORANGE*        MOSUNNY   84  75  74 S5        29.94F HX  92
GORDONSVILLE*  FAIR      82  75  78 SW9       29.93S
WARRENTON*     FAIR      84  77  80 SW6       29.92S HX  93

$$

VAZ055>057-301500-
NORTH AND CENTRAL PIEDMONT

CITY           SKY/WX    TMP DP  RH WIND       PRES   REMARKS
FREDERICKSBRG* MOSUNNY   85  74  71 S7        29.92S HX  92
STAFFORD*      MOSUNNY   83  72  69 SW9       29.97S

$$

NCZ024-NYZ072-PAZ021-071-VAZ022-071-301500-
OTHER REGIONAL OBSERVATIONS

CITY           SKY/WX    TMP DP  RH WIND       PRES   REMARKS
NEW YORK CITY  CLOUDY    80  72  76 MISG      29.92F
PHILADELPHIA   PTSUNNY   85  73  67 S14       29.90F HX  91
PITTSBURGH     MOSUNNY   79  59  50 NW9       29.98S
ROANOKE        PTSUNNY   78  71  79 W7        30.03R
RICHMOND       PTSUNNY   84  73  69 S10       29.95S HX  90
RALEIGH        MOSUNNY   84  70  62 SW6       29.98S

$$

ANZ530>537-301500-
MARINE OBSERVATIONS

STATION/POSITION TIME  TEMP    WIND        PRES
                       AIR SEA DIR/SP/G
                 (UTC) (F)     (DEG/KT/KT) (MB)
THOMAS PT LIGHT  NOT AVBL
BALT KEY BRIDGE  1312   79     140/  6/  7 1012.7
COVE POINT       1312   79     230/ 11/ 12 1014.3
LEWISETTA        1312   81 83  230/ 11/ 13 1013.6
SOLOMONS ISLAND  1306      83                N/A

$$



USA.gov is the U.S. government's official web portal to all federal, state and local government web resources and services.